sat.trackr.live / text

‹ back to catalog

BRO-17

NORAD 66672 · 2025-276G

PAYLOAD ACTIVE UNKNOWN

§ Identity

Operator
Country
FR
Launch date
2025-11-28
Launch site
AFWTR
Launch vehicle
Mass (kg)
RCS (m²)

External: N2YO · Heavens-Above · Gunter

§ Orbital elements

Epoch: 2026-05-25T04:12:57.949344Z

Period
94.87 min
Inclination
97.4197°
Eccentricity
0.0008459
Mean motion
15.17814493 rev/d
Perigee alt
506.6 km
Apogee alt
518.3 km
Semi-major
6,890.6 km
B*
1.3490e-4
RAAN
218.7395°
Arg perigee
84.6372°
Mean anomaly
275.5826°
Rev number
2,690

§ Raw data

BRO-171 66672U 25276G   26145.17567071  .00002663  00000+0  13490-3 0  99972 66672  97.4197 218.7395 0008459  84.6372 275.5826 15.17814493 26902

JSON: /api/v1/satellites/66672 · /tle

For live sub-satellite position, see the globe view (requires WebGL).

§ Visibility from observer

Set your observer location to see the next 7 days of passes ≥ 10°. The values pass through the URL so the page stays shareable.

No JS? Fill the form by hand. The geolocation button needs JavaScript.